Cahokia, IL

12:10 PM CDT on April 25, 2017 (GMT -0500)
Saint Louis Downtown

Weather History for KCPS - January, 2014

Change the Weather History Date:

Friday, January 3, 2014

  Actual Average Record
Temperature  
Mean Temperature 14 °F -  
Max Temperature 27 °F 35 °F 68 °F (1950)
Min Temperature 1 °F 24 °F 0 °F (2001)
Degree Days  
Heating Degree Days 51    
Moisture  
Dew Point 9 °F    
Average Humidity 73    
Maximum Humidity 92    
Minimum Humidity 53    
Precipitation  
Precipitation 0.00 in - - ()
Sea Level Pressure  
Sea Level Pressure 30.35 in    
Wind  
Wind Speed 6 mph (SSE)    
Max Wind Speed 15 mph    
Max Gust Speed 23 mph    
Visibility 10 miles    
Events      
Averages and records for this station are not official NWS values.
T = Trace of Precipitation, MM = Missing Value Source: NWS Daily Summary

Daily Weather History Graph

Daily Weather History Graph

Search for Another Location

Airport or City:

Trip Planner

Search our weather history database for the weather conditions in past years. The results will help you decide how hot, cold, wet, or windy it might be!

Date:

Astronomy

Jan. 03, 2014 Rise Set
Actual Time 7:18 AM CST 4:52 PM CST
Civil Twilight 6:48 AM CST 5:21 PM CST
Nautical Twilight 6:15 AM CST 5:54 PM CST
Astronomical Twilight 5:43 AM CST 6:26 PM CST
Moon 8:46 AM CST (1/3) 7:58 PM CST (1/3)
Length of Visible Light 10h 32m
Length of Day
9h 33m
Waxing Crescent, 8% of the Moon is Illuminated
Jan 3
Waxing Crescent
Jan 7
First Quarter
Jan 15
Full
Jan 23
Last Quarter
Jan 30
New

Hourly Weather History & Observations

Time (CST) Temp. Windchill Dew Point Humidity Pressure Visibility Wind Dir Wind Speed Gust Speed Precip Events Conditions
12:53 AM 9.0 °F 2.4 °F 3.0 °F 77% 30.52 in 10.0 mi North 3.5 mph - N/A   Clear
1:53 AM 7.0 °F - 3.9 °F 87% 30.53 in 10.0 mi Calm Calm - N/A   Clear
2:53 AM 5.0 °F - 3.0 °F 92% 30.53 in 10.0 mi Calm Calm - N/A   Clear
3:53 AM 3.9 °F - 1.0 °F 88% 30.53 in 10.0 mi Calm Calm - N/A   Clear
4:53 AM 1.9 °F - -0.0 °F 91% 30.53 in 10.0 mi Calm Calm - N/A   Clear
5:53 AM 1.9 °F - -0.0 °F 91% 30.53 in 10.0 mi Calm Calm - N/A   Clear
6:53 AM 3.0 °F -4.4 °F -0.0 °F 87% 30.54 in 10.0 mi South 3.5 mph - N/A   Clear
7:53 AM 5.0 °F - 1.9 °F 87% 30.55 in 10.0 mi Calm Calm - N/A   Clear
8:53 AM 9.0 °F 0.6 °F 6.1 °F 88% 30.53 in 9.0 mi South 4.6 mph - N/A   Clear
9:53 AM 14.0 °F 1.2 °F 7.0 °F 74% 30.51 in 10.0 mi SSE 10.4 mph - N/A   Clear
10:53 AM 17.1 °F 3.6 °F 10.0 °F 74% 30.45 in 10.0 mi SE 12.7 mph - N/A   Clear
11:53 AM 19.9 °F 8.6 °F 10.0 °F 65% 30.41 in 10.0 mi South 10.4 mph 17.3 mph N/A   Clear
12:53 PM 21.9 °F 9.2 °F 12.0 °F 66% 30.34 in 10.0 mi South 13.8 mph 20.7 mph N/A   Clear
1:53 PM 25.0 °F 13.6 °F 12.9 °F 60% 30.31 in 10.0 mi SSE 12.7 mph - N/A   Clear
2:53 PM 27.0 °F 15.2 °F 12.0 °F 53% 30.28 in 10.0 mi SSE 15.0 mph 23.0 mph N/A   Clear
3:53 PM 27.0 °F 16.1 °F 12.9 °F 56% 30.26 in 10.0 mi SSE 12.7 mph - N/A   Clear
4:53 PM 25.0 °F 14.2 °F 14.0 °F 63% 30.23 in 10.0 mi SSE 11.5 mph - N/A   Clear
5:53 PM 24.1 °F 13.7 °F 14.0 °F 65% 30.22 in 10.0 mi SSE 10.4 mph - N/A   Clear
6:53 PM 24.1 °F 13.1 °F 14.0 °F 65% 30.19 in 10.0 mi SSE 11.5 mph 18.4 mph N/A   Clear
7:53 PM 23.0 °F 11.7 °F 14.0 °F 68% 30.16 in 10.0 mi South 11.5 mph 19.6 mph N/A   Clear
8:53 PM 23.0 °F 11.7 °F 14.0 °F 68% 30.12 in 10.0 mi SSE 11.5 mph - N/A   Clear
9:53 PM 24.1 °F 13.7 °F 14.0 °F 65% 30.10 in 10.0 mi South 10.4 mph 20.7 mph N/A   Clear
10:53 PM 25.0 °F 14.2 °F 14.0 °F 63% 30.07 in 10.0 mi South 11.5 mph 18.4 mph N/A   Clear
11:53 PM 26.1 °F 16.2 °F 12.9 °F 58% 30.06 in 10.0 mi South 10.4 mph 18.4 mph N/A   Clear